CW9119 Weather Reports


Display with metric or nautical units.
time (UTC)temp
F
wind
direction
speed
MPH
gust
MPH
rain 1hr
in
rain 24hr
in
rain mn
in
humidity
%
barometer
mb
20260905052109 54 344 0.0 2.0 0.00 0.19 0.18 95 1015.5
20260905045109 54 306 1.0 6.0 0.00 0.19 0.18 94 1015.0
20260905044109 54 330 0.0 5.0 0.00 0.19 0.18 94 1014.9
20260905043109 54 330 0.0 1.0 0.00 0.19 0.18 94 1014.9
20260905042109 54 330 0.0 0.0 0.00 0.19 0.18 94 1014.8
20260905041109 54 330 0.0 0.0 0.00 0.19 0.18 94 1014.8
20260905035109 54 330 0.0 2.0 0.00 0.19 0.18 94 1014.5
20260905033109 54 331 0.0 1.0 0.00 0.19 0.18 94 1014.6
20260905032109 54 331 0.0 0.0 0.01 0.19 0.18 94 1014.1
20260905031108 54 331 0.0 0.0 0.01 0.19 0.18 94 1014.2
20260905030108 54 331 0.0 0.0 0.02 0.19 0.18 94 1014.1
20260905025109 54 331 0.0 0.0 0.02 0.19 0.18 94 1014.2
20260905024108 54 331 0.0 2.0 0.02 0.19 0.18 94 1014.2
20260905023108 54 312 0.0 2.0 0.02 0.19 0.18 94 1014.1
20260905021108 54 313 0.0 5.0 0.02 0.18 0.17 93 1013.7
20260905020108 54 313 0.0 6.0 0.02 0.17 0.17 93 1013.6
20260905015109 54 314 0.0 0.0 0.02 0.17 0.17 93 1013.0
20260905013110 54 315 1.0 6.0 0.02 0.17 0.16 93 1013.1
20260905012110 54 319 0.0 2.0 0.03 0.17 0.16 93 1013.0
20260905005110 54 319 0.0 0.0 0.03 0.15 0.14 92 1013.3
20260905004110 54 319 2.0 8.0 0.05 0.15 0.14 92 1013.4
20260905003110 55 337 1.0 8.0 0.04 0.14 0.13 92 1013.4
20260904233110 56 305 4.0 16.0 0.06 0.10 0.09 91 1012.8
20260904230109 57 5 6.0 19.0 0.08 0.09 0.09 90 1012.6
20260904221109 59 286 3.0 8.0 0.01 0.02 0.01 87 1011.7
20260904220109 60 15 2.0 7.0 0.01 0.02 0.01 86 1012.0
20260904214109 59 360 3.0 17.0 0.00 0.01 0.01 85 1011.2
20260904212109 59 308 2.0 10.0 0.00 0.01 0.01 84 1011.5
20260904210114 59 344 1.0 5.0 0.00 0.01 0.01 82 1011.0
20260904205114 59 344 0.0 0.0 0.00 0.01 0.01 80 1010.8
20260904204114 59 344 1.0 6.0 0.00 0.01 0.01 80 1010.6
20260904202114 60 92 0.0 0.0 0.00 0.01 0.01 77 1010.6
20260904201114 61 92 0.0 0.0 0.00 0.01 0.01 76 1011.0
20260904194113 62 347 2.0 11.0 0.00 0.01 0.01 74 1011.4
20260904193113 63 350 0.0 6.0 0.00 0.01 0.01 76 1011.2
20260904192113 63 283 2.0 7.0 0.00 0.01 0.01 76 1011.1
20260904190113 65 316 1.0 10.0 0.00 0.01 0.01 78 1011.1
20260904180113 68 158 0.0 5.0 0.00 0.01 0.01 77 1009.7
20260904174113 69 175 0.0 0.0 0.00 0.01 0.01 76 1009.5
20260904172113 69 174 0.0 0.0 0.00 0.01 0.01 76 1009.6
20260904171113 70 174 0.0 0.0 0.00 0.01 0.01 76 1010.0
20260904165113 70 161 0.0 1.0 0.00 0.01 0.01 76 1010.0
20260904164113 71 161 0.0 0.0 0.00 0.01 0.01 75 1010.3
20260904163112 71 161 0.0 1.0 0.00 0.01 0.01 74 1010.4
20260904161112 71 311 1.0 8.0 0.00 0.01 0.01 73 1010.5
20260904155112 71 24 1.0 6.0 0.00 0.01 0.01 72 1010.4
20260904151112 71 174 3.0 13.0 0.01 0.01 0.01 72 1010.7
20260904150112 71 74 1.0 6.0 0.01 0.01 0.01 73 1010.7
20260904143112 71 145 5.0 12.0 0.00 0.00 0.00 73 1011.0
20260904141111 71 144 5.0 11.0 0.00 0.00 0.00 74 1011.3
20260904135111 70 279 4.0 28.0 0.00 0.00 0.00 76 1011.6
20260904134111 70 86 3.0 12.0 0.00 0.00 0.00 78 1011.7
20260904133111 69 142 4.0 10.0 0.00 0.00 0.00 78 1011.7
20260904131111 69 105 1.0 6.0 0.00 0.00 0.00 79 1011.9
20260904125111 69 175 1.0 6.0 0.00 0.00 0.00 79 1012.4
20260904123111 68 168 1.0 7.0 0.00 0.00 0.00 80 1012.6
20260904122111 68 153 1.0 6.0 0.00 0.00 0.00 79 1012.9
20260904120111 68 66 2.0 6.0 0.00 0.00 0.00 82 1012.9
20260904115111 67 120 0.0 5.0 0.00 0.00 0.00 83 1013.2
20260904112110 67 168 1.0 6.0 0.00 0.00 0.00 83 1013.5
20260904110110 67 136 1.0 8.0 0.00 0.00 0.00 84 1013.6
20260904103110 66 92 1.0 7.0 0.00 0.00 0.00 88 1014.0
20260904100113 63 229 0.0 1.0 0.00 0.00 0.00 91 1014.7
20260904095113 62 229 1.0 4.0 0.00 0.00 0.00 91 1014.7
20260904092113 61 146 0.0 0.0 0.00 0.00 0.00 93 1014.3
20260904085113 60 156 1.0 6.0 0.00 0.00 0.00 94 1014.6
20260904083113 60 196 2.0 7.0 0.00 0.00 0.00 94 1014.9
20260904082113 59 128 1.0 7.0 0.00 0.00 0.00 94 1014.8
20260904081113 59 144 0.0 0.0 0.00 0.00 0.00 94 1014.8
20260904080113 58 144 1.0 7.0 0.00 0.00 0.00 94 1014.9
20260904075113 58 183 0.0 4.0 0.00 0.00 0.00 93 1014.9
20260904071112 58 182 0.0 1.0 0.00 0.00 0.00 94 1015.5
20260904065112 57 186 0.0 0.0 0.00 0.00 0.00 93 1015.2
20260904063112 57 308 0.0 1.0 0.00 0.00 0.00 93 1015.4
20260904062112 57 308 0.0 0.0 0.00 0.00 0.00 93 1015.4
20260904061112 57 308 0.0 0.0 0.00 0.00 0.00 93 1015.4
20260904060112 56 308 0.0 0.0 0.00 0.00 0.00 93 1015.4